Home   Weather   Ontario   Past weeks

Flag for USA Past Weather in Ontario, Oregon, USA — Yesterday and Last 2 Weeks

Now
71 °F

Clear.


Feels Like: 77 °F
Forecast: 56 / 89 °F
Wind: 3 mph from North

Location: Ontario Municipal Airport

Current Time: Aug 19, 2017 at 5:34:51 am

Latest Report: Aug 19, 2017 at 4:53 am


Visibility: 10 mi

Pressure: 29.91 "Hg (27.72 "Hg at 656m altitude)

Humidity: 35%

Dew Point: 42 °F

Location of OntarioLocation

Past Weather in Ontario — Graph

°F

Ontario Temperature Yesterday

Maximum temperature yesterday: 93 °F (at 4:53 pm)
Minimum temperature yesterday: 55 °F (at 6:53 am)
Average temperature yesterday: 76 °F

High & Low Weather Summary for the Past Weeks

 TemperatureHumidityPressure
High100 °F (Aug 4, 4:53 pm)97% (Aug 14, 2:53 am)30.06 "Hg (Aug 14, 2:53 am)
Low50 °F (Aug 15, 6:53 am)12% (Aug 5, 4:53 pm)29.68 "Hg (Aug 4, 7:53 pm)
Average76 °F42%29.88 "Hg
* Reported Aug 4 3:53 am — Aug 19 3:53 am, Ontario. Weather by CustomWeather, © 2017

Note: Actual official high and low records may vary slightly from our data, if they occured in-between our weather recording intervals... More about our weather records

Advertising

Ontario Weather History for the Previous 24 Hours

Scroll right to see more
 ConditionsComfort  
Time TempWeatherWind HumidityBarometerVisibility
3:53 am
Sat, Aug 19
75 °FClear.12 mph27%29.91 "Hg10 mi
2:53 am76 °FClear.13 mph23%29.91 "Hg10 mi
1:53 am76 °FClear.9 mph18%29.91 "Hg10 mi
12:53 am76 °FClear.3 mph19%29.91 "Hg10 mi
11:53 pm
Fri, Aug 18
75 °FClear.3 mph24%29.91 "Hg10 mi
10:53 pm73 °FClear.7 mph33%29.91 "Hg10 mi
9:53 pm72 °FClear.5 mph48%29.90 "Hg10 mi
8:53 pm78 °FSunny.3 mph39%29.90 "Hg10 mi
7:53 pm88 °FSunny.No wind27%29.88 "Hg10 mi
6:53 pm91 °FSunny.3 mph20%29.90 "Hg10 mi
5:53 pm93 °FSunny.5 mph13%29.91 "Hg10 mi
4:53 pm93 °FSunny.5 mph15%29.93 "Hg10 mi
3:53 pm92 °FSunny.5 mph16%29.95 "Hg10 mi
2:53 pm90 °FSunny.3 mph16%29.98 "Hg10 mi
1:53 pm89 °FSunny.5 mph15%30.00 "Hg10 mi
12:53 pm85 °FSunny.No wind20%30.03 "Hg10 mi
11:53 am81 °FSunny.3 mph21%30.05 "Hg10 mi
10:53 am78 °FSunny.7 mph24%30.06 "Hg9 mi
9:53 am72 °FSunny.6 mph34%30.06 "Hg10 mi
8:53 am65 °FSunny.5 mph45%30.06 "Hg10 mi
7:53 am59 °FClear.3 mph58%30.05 "Hg10 mi
6:53 am55 °FClear.No wind67%30.03 "Hg10 mi
5:53 am60 °FClear.No wind52%30.01 "Hg10 mi
Weather by CustomWeather, © 2017

See weather overviewHow to use our weather pages